Location: Unspecified
(0.0000°N, 0.0000°E)
Time: 09:06:40
(UTC+02:00)

Ariane H10-3 - Visible Passes

Search period start: 30 March 2015 00:00
Search period end: 09 April 2015 00:00
Orbit: 219 x 21305 km, 7.2° (Epoch: 29 March)

Date Brightness Start Highest point End Pass type
(mag) Time Alt. Az. Time Alt. Az. Time Alt. Az.
30 Mar 5.7 06:27:38 35° W 06:33:40 89° S 10:36:40 10° E visible
31 Mar 6.5 07:15:43 14° W 07:28:11 85° S 12:03:06 10° E visible
02 Apr 5.8 19:01:15 10° W 20:42:34 73° NNW 20:49:12 11° ENE visible
03 Apr 7.4 03:24:30 11° E 03:24:30 11° E 03:25:14 10° E visible
03 Apr 4.9 20:57:58 10° W 21:32:02 61° NNW 21:34:58 33° NE visible
04 Apr 6.6 04:10:07 30° E 04:10:07 30° E 04:22:07 10° E visible
04 Apr 4.7 22:04:01 10° W 22:20:06 48° NNW 22:20:06 48° NNW visible
05 Apr 5.6 04:55:05 62° E 04:55:05 62° E 05:27:43 10° E visible
05 Apr 6.1 22:59:30 10° W 23:04:35 22° WNW 23:04:35 22° WNW visible
06 Apr 5.2 05:39:23 72° W 05:40:54 89° S 07:14:30 10° E visible
07 Apr 5.7 06:23:02 37° W 06:29:00 84° S 10:31:24 10° E visible
08 Apr 6.4 07:06:03 16° W 07:17:46 81° S 11:49:41 10° E visible
